[[{"header":{"parameterUnit":"m.s-1","parameterCategory":1,"la1":30.2991,"la2":30.254,"lo1":-89.0895,"lo2":-89.0444,"dy":0.0017,"dx":0.0017,"nx":28,"ny":28,"refTime":"2025-04-26T09:00:00:Z","depth":0,"parameterNumber":2,"parameterNumberName":"U-component_of_WINDS"},"data":[0,0,0,0,0,0,0,0,0,0,0,0,0,0,0,0,0,0,0,0,0,0,0,0,0,0,0,0,0,0,0,0,0,0,0,0,0,0,0,0,0,0,0,0,0,0,0,0,0,0,0,0,0,0,0,0,0,0,0.5354,0.5354,0,0.5428,0.5429,0.543,0.5443,0.5442,0.5441,0.5441,0.5517,0.552,0.5522,0,0,0,0,0,0,0,0,0,0,0,0,0,0.5222,0.5225,0.5354,0.5355,0.5355,0.5428,0.5429,0.543,0.5443,0.5442,0.5441,0.544,0.5516,0.552,0.5523,0,0,0,0,0,0,0,0,0,0,0,0,0,0.5286,0.5225,0.5353,0.5371,0.5373,0.5428,0.5429,0.543,0.5443,0.5442,0.5441,0.544,0.5515,0.5519,0.5523,0.5566,0,0,0.5535,0.5537,0,0,0,0,0,0,0,0,0.5283,0.5291,0.5367,0.5369,0.5372,0.5425,0.5411,0.5476,0.5443,0.5416,0.5441,0.544,0.5487,0.5494,0.551,0.557,0.5573,0.5536,0.5538,0.554,0.5541,0,0,0,0,0,0,0,0.5278,0.5288,0.5383,0.5368,0.5371,0.5374,0.5382,0.5423,0.5456,0.5419,0.542,0.5428,0.5489,0.5506,0.5512,0.5574,0.5535,0.5539,0.5541,0.5543,0.5674,0.5675,0,0,0,0,0,0,0.5271,0.5284,0.5381,0.5385,0.5324,0.5378,0.5387,0.5409,0.5456,0.5462,0.5429,0.5429,0.55,0.5507,0.5514,0.5568,0.554,0.5543,0.5546,0.5672,0.5674,0.5675,0,0,0,0,0,0,0.5268,0.5279,0.5378,0.5335,0.5348,0.5381,0.5406,0.5411,0.5428,0.5464,0.547,0.544,0.5499,0.5509,0.5553,0.557,0.5545,0.5549,0.5671,0.5673,0.5674,0.5675,0,0,0,0,0,0,0.5264,0.5278,0.5295,0.5335,0.535,0.5415,0.5407,0.5413,0.5435,0.5435,0.5476,0.5482,0.5499,0.5547,0.5557,0.5575,0.5552,0.567,0.5672,0.5674,0.5673,0.5676,0.5679,0,0,0,0,0,0.5259,0.5292,0.5296,0.5307,0.5372,0.5416,0.5425,0.5444,0.5436,0.5453,0.5476,0.5481,0.5567,0.5552,0.5563,0.5583,0.5669,0.5671,0.5674,0.5672,0.5676,0.5679,0,0,0,0,0,0,0.5253,0.5298,0.5302,0.5349,0.5379,0.5418,0.5441,0.5447,0.5479,0.5478,0.55,0.5509,0.5553,0.5572,0.5554,0.5627,0.5617,0.5622,0.5612,0.5616,0.5619,0.5613,0.5555,0,0,0,0,0,0.5257,0.529,0.5327,0.5365,0.5379,0.5407,0.5428,0.544,0.5471,0.5484,0.551,0.554,0.5574,0.5596,0.563,0.5676,0.5685,0.5696,0.5698,0.57,0.5704,0.573,0.5735,0.5683,0.5683,0.5683,0,0,0.5266,0.5294,0.5314,0.5364,0.5389,0.5422,0.5418,0.5453,0.5478,0.5489,0.5533,0.5553,0.5588,0.5634,0.5655,0.5652,0.572,0.5703,0.5705,0.5708,0.5733,0.5738,0.5742,0.5685,0.5685,0.5684,0,0,0.5299,0.5324,0.5358,0.5382,0.5419,0.5437,0.5445,0.5484,0.5498,0.5542,0.5551,0.5581,0.5639,0.5664,0.5684,0.5726,0.5731,0.5736,0.575,0.5775,0.5779,0.5782,0.5797,0.5802,0.574,0.574,0.574,0,0.5305,0.5355,0.5374,0.5409,0.5431,0.5443,0.5477,0.55,0.5546,0.5561,0.5556,0.5629,0.5654,0.5705,0.5715,0.5731,0.5741,0.5731,0.5777,0.5781,0.5784,0.5798,0.5804,0.574,0.574,0.574,0.574,0,0.536,0.5395,0.5418,0.5462,0.5486,0.5521,0.5545,0.5568,0.5578,0.5597,0.5641,0.5671,0.571,0.5724,0.5734,0.5777,0.5773,0.5772,0.5763,0.5789,0.5803,0.5808,0.5741,0.5741,0.574,0.574,0,0,0.5391,0.5445,0.5453,0.5473,0.5514,0.5542,0.5576,0.5615,0.5633,0.5665,0.5694,0.5743,0.5743,0.5766,0.5779,0.58,0.5831,0.5797,0.5798,0.5802,0.5879,0.5879,0.5885,0.5835,0.5836,0.5837,0.5876,0,0.5428,0.5491,0.5509,0.5562,0.5594,0.5605,0.5636,0.5664,0.5683,0.5712,0.5733,0.5767,0.5764,0.5778,0.58,0.5822,0.5847,0.582,0.5862,0.5864,0.5853,0.5893,0.5893,0.5929,0.5882,0.5883,0.5883,0,0.548,0.5512,0.5567,0.5604,0.5619,0.5646,0.5682,0.571,0.5743,0.5755,0.578,0.5792,0.5828,0.5817,0.5868,0.5849,0.5868,0.5882,0.5883,0.5888,0.5875,0.5898,0.594,0.5946,0.5892,0.5891,0.5891,0,0.5496,0.5553,0.5593,0.561,0.5655,0.5673,0.5693,0.5724,0.5746,0.5778,0.5792,0.5828,0.5848,0.5875,0.5896,0.5886,0.5944,0.5935,0.5955,0.5955,0.5967,0.5966,0.6013,0.5979,0.5979,0.5979,0.5979,0,0.5535,0.5569,0.5601,0.5626,0.5664,0.5685,0.5721,0.5741,0.577,0.5798,0.5811,0.5838,0.5863,0.5893,0.591,0.5949,0.5958,0.5968,0.5972,0.5967,0.5966,0.5979,0.5977,0.5981,0.598,0.598,0.598,0,0.5559,0.5583,0.5627,0.5666,0.5676,0.5702,0.5735,0.576,0.5778,0.5815,0.5825,0.5854,0.589,0.5914,0.596,0.5971,0.6014,0.6017,0.6002,0.6004,0.6022,0.602,0.608,0.6088,0.6049,0.605,0.605,0,0.5583,0.5609,0.565,0.567,0.5689,0.5722,0.5744,0.5766,0.5788,0.5827,0.5847,0.5884,0.5915,0.5972,0.5998,0.6033,0.6037,0.6055,0.6042,0.6036,0.6037,0.6035,0.6037,0.6057,0.6057,0.6058,0.6058,0,0.5621,0.5632,0.5663,0.5699,0.5725,0.5754,0.5783,0.5798,0.5825,0.585,0.5887,0.5911,0.5958,0.5994,0.6032,0.6052,0.6059,0.6062,0.6068,0.6063,0.6053,0.6058,0.6008,0.606,0.606,0.606,0.606,0.606,0.5646,0.5669,0.5701,0.5736,0.576,0.5787,0.5812,0.5834,0.5865,0.5904,0.5916,0.5954,0.5986,0.6037,0.6058,0.6088,0.6086,0.6095,0.6098,0.61,0.61,0.6049,0.6095,0.6095,0.6095,0.6095,0.6095,0,0.5684,0.5706,0.5737,0.5777,0.5805,0.5809,0.5842,0.5864,0.5898,0.5927,0.5957,0.5999,0.6035,0.6063,0.6099,0.6118,0.6123,0.6127,0.6126,0.613,0.61,0.609,0.6123,0.6123,0.6123,0.6123,0.6123,0.6123,0.5708,0.5747,0.5761,0.5813,0.5834,0.5872,0.589,0.5915,0.5938,0.5985,0.6014,0.6032,0.6061,0.61,0.6132,0.614,0.6153,0.6156,0.6164,0.6135,0.6132,0.6129,0.6121,0.6159,0.6159,0.6192,0.6192,0.6193]},{"header":{"parameterUnit":"m.s-1","parameterCategory":1,"la1":30.2991,"la2":30.254,"lo1":-89.0895,"lo2":-89.0444,"dy":0.0017,"dx":0.0017,"nx":28,"ny":28,"refTime":"2025-04-26T09:00:00:Z","depth":0,"parameterNumber":3,"parameterNumberName":"V-component_of_WINDS"},"data":[0,0,0,0,0,0,0,0,0,0,0,0,0,0,0,0,0,0,0,0,0,0,0,0,0,0,0,0,0,0,0,0,0,0,0,0,0,0,0,0,0,0,0,0,0,0,0,0,0,0,0,0,0,0,0,0,0,0,2.1508,2.1507,0,2.1477,2.1477,2.1476,2.1427,2.1427,2.1426,2.1425,2.1394,2.1394,2.1394,0,0,0,0,0,0,0,0,0,0,0,0,0,2.1524,2.1524,2.1508,2.1507,2.1507,2.1477,2.1477,2.1476,2.1428,2.1426,2.1425,2.1424,2.1394,2.1394,2.1394,0,0,0,0,0,0,0,0,0,0,0,0,0,2.1508,2.1524,2.1508,2.1479,2.1476,2.1477,2.1477,2.1476,2.1428,2.1426,2.1425,2.1424,2.1394,2.1394,2.1394,2.142,0,0,2.1394,2.1394,0,0,0,0,0,0,0,0,2.1509,2.1507,2.1484,2.1481,2.1478,2.1455,2.1471,2.1458,2.1428,2.1446,2.1425,2.1423,2.1415,2.1413,2.141,2.1419,2.1418,2.1394,2.1394,2.1394,2.1394,0,0,0,0,0,0,0,2.151,2.1508,2.1496,2.1483,2.148,2.1468,2.1464,2.1468,2.1438,2.1445,2.1441,2.1438,2.1413,2.141,2.1409,2.1417,2.1394,2.1394,2.1394,2.1394,2.1446,2.1447,0,0,0,0,0,0,2.1515,2.151,2.1497,2.1495,2.149,2.1469,2.1464,2.1464,2.1438,2.1433,2.1439,2.1436,2.1411,2.1409,2.1408,2.1438,2.1394,2.1394,2.1394,2.1445,2.1446,2.1448,0,0,0,0,0,0,2.1516,2.1515,2.1498,2.1501,2.1498,2.147,2.1469,2.1464,2.1461,2.1434,2.1429,2.1442,2.141,2.1408,2.1418,2.1436,2.1394,2.1394,2.1443,2.1445,2.1447,2.1498,0,0,0,0,0,0,2.1517,2.1515,2.1525,2.1502,2.1498,2.1508,2.147,2.1464,2.1461,2.1456,2.1435,2.1431,2.1409,2.1418,2.1418,2.1435,2.1394,2.1441,2.1444,2.1446,2.1494,2.1501,2.1507,0,0,0,0,0,2.1517,2.154,2.1526,2.1524,2.151,2.1509,2.1507,2.1482,2.1463,2.1472,2.1455,2.1431,2.1434,2.1419,2.1419,2.1436,2.144,2.1443,2.1446,2.1491,2.15,2.1507,0,0,0,0,0,0,2.1567,2.1537,2.152,2.1537,2.1526,2.1501,2.1513,2.1492,2.1486,2.1482,2.1451,2.1446,2.146,2.1449,2.1433,2.1461,2.1433,2.1436,2.1468,2.1476,2.1482,2.1484,2.1394,0,0,0,0,0,2.158,2.1582,2.1555,2.1572,2.1568,2.1541,2.154,2.1521,2.1509,2.1504,2.1488,2.1477,2.1475,2.1475,2.1472,2.1492,2.1487,2.1504,2.1511,2.1516,2.1519,2.1529,2.1537,2.1458,2.1458,2.1458,0,0,2.1606,2.159,2.1593,2.1582,2.1571,2.1574,2.1538,2.1542,2.1544,2.1505,2.1513,2.1501,2.1486,2.1502,2.1508,2.1493,2.154,2.152,2.1525,2.1525,2.1533,2.1541,2.1548,2.146,2.146,2.146,0,0,2.1656,2.1644,2.1657,2.1647,2.1631,2.1614,2.1617,2.1595,2.1585,2.1593,2.1564,2.1565,2.1563,2.1554,2.1549,2.1596,2.1574,2.1596,2.163,2.164,2.1646,2.1651,2.1668,2.1675,2.1599,2.1599,2.1599,0,2.1691,2.1694,2.1666,2.1672,2.1668,2.1633,2.1646,2.1637,2.1622,2.162,2.1604,2.16,2.1588,2.1601,2.1612,2.161,2.1612,2.1598,2.1647,2.1653,2.1657,2.1673,2.1679,2.1602,2.1601,2.1601,2.1601,0,2.1737,2.174,2.1752,2.1738,2.1735,2.1745,2.1719,2.172,2.1701,2.1685,2.1693,2.1677,2.1671,2.1672,2.1654,2.1683,2.1674,2.1653,2.1625,2.1668,2.1682,2.1688,2.1606,2.1605,2.1604,2.1603,0,0,2.1817,2.1788,2.1793,2.1786,2.1766,2.1768,2.1776,2.1769,2.1771,2.1761,2.1767,2.1766,2.1747,2.1741,2.1722,2.1731,2.1769,2.1709,2.1708,2.1721,2.1799,2.1815,2.1823,2.1754,2.1755,2.1756,2.1801,0,2.1863,2.1875,2.1851,2.1869,2.1871,2.1837,2.1844,2.1833,2.1819,2.1818,2.1802,2.1802,2.1776,2.1772,2.178,2.1763,2.1784,2.1759,2.1759,2.176,2.1764,2.183,2.1847,2.189,2.1806,2.1807,2.1808,0,2.1918,2.1912,2.193,2.191,2.191,2.1916,2.1908,2.1909,2.1895,2.1884,2.1878,2.1855,2.1862,2.1834,2.1843,2.1826,2.1825,2.1816,2.1817,2.1817,2.1787,2.1831,2.1903,2.191,2.1816,2.1815,2.1815,0,2.1975,2.1971,2.1981,2.1977,2.1953,2.1958,2.1949,2.1934,2.1932,2.1925,2.1923,2.1917,2.1913,2.1909,2.1885,2.1867,2.1897,2.1867,2.1888,2.1888,2.1895,2.1895,2.1968,2.1894,2.1894,2.1894,2.1894,0,2.2029,2.2042,2.2007,2.2013,2.2026,2.1998,2.2012,2.1999,2.1986,2.1989,2.196,2.1963,2.1932,2.1932,2.1913,2.1923,2.1922,2.1913,2.1908,2.1916,2.1917,2.1915,2.1911,2.1896,2.1895,2.1895,2.1895,0,2.2095,2.2072,2.2081,2.2058,2.2052,2.2063,2.2043,2.2048,2.2031,2.2036,2.2036,2.201,2.2008,2.1984,2.1978,2.1965,2.1983,2.1972,2.1988,2.1984,2.2006,2.2005,2.208,2.2089,2.201,2.201,2.2011,0,2.2131,2.214,2.2118,2.2118,2.211,2.211,2.2108,2.208,2.2078,2.2064,2.2071,2.2067,2.2063,2.2063,2.2043,2.2038,2.2027,2.2054,2.2026,2.2034,2.2028,2.2028,2.2029,2.206,2.2061,2.2062,2.2063,0,2.2198,2.2186,2.2183,2.2177,2.2175,2.2168,2.216,2.2162,2.2131,2.2131,2.2129,2.2126,2.212,2.2117,2.2108,2.2098,2.2076,2.2072,2.2076,2.2084,2.2093,2.2089,2.2004,2.207,2.2069,2.2069,2.2068,2.2068,2.225,2.2256,2.2242,2.224,2.2231,2.2224,2.2227,2.2211,2.2209,2.2202,2.2186,2.2187,2.2173,2.2159,2.2151,2.2152,2.2138,2.2145,2.2146,2.2148,2.2153,2.2093,2.215,2.215,2.215,2.2149,2.2149,0,2.2315,2.2304,2.2302,2.2292,2.2291,2.2269,2.2259,2.2259,2.2261,2.225,2.2246,2.2245,2.2242,2.2222,2.2216,2.2221,2.221,2.222,2.222,2.2218,2.2165,2.2162,2.2229,2.2229,2.2229,2.2229,2.2229,2.2229,2.2349,2.2359,2.2345,2.235,2.2339,2.234,2.2336,2.2329,2.232,2.232,2.2317,2.2304,2.229,2.2283,2.228,2.2274,2.2273,2.2287,2.2278,2.2229,2.2222,2.2214,2.2211,2.2287,2.2287,2.233,2.2331,2.2331]}]]